User: anonymous   Login
Location: Unspecified
(0.0000°N, 0.0000°E)
Time: 01:40:00
(UTC+00:00)
Language:

Azur - Orbit

View from above orbital plane
View from above orbital plane
View from above satellite
View from above satellite

Ground track
Ground track

The orbit data is extracted from the following two-line orbital elements,

1  4221U 69097A   17345.91903887 +.00004046 +00000-0 +19325-3 0  9992
2  4221 102.6889 290.2980 0634314 043.2131 321.7044 14.23839497274486
Epoch (UTC): 11 December 2017 22:03:24
Eccentricity: 0.0634314
inclination: 102.6889°
perigee height: 356 km
apogee height: 1268 km
right ascension of ascending node: 290.2980°
argument of perigee: 43.2131°
revolutions per day: 14.23839497
mean anomaly at epoch: 321.7044°
orbit number at epoch: 27448

The dashed part of the orbit path shows where the satellite is in the earth's shadow,  

DLR